WEATHER DATA

TODAY
Time Temp. Dewp. Hum. Bar.
00:01 17.7 11.3 66 1014.6
00:11 17.7 11.3 66 1014.7
00:21 17.7 11.3 66 1014.8
00:32 17.7 11.3 66 1014.8
00:42 17.7 11.3 66 1014.7
00:51 17.7 11.3 66 1014.6
01:02 17.7 11.3 66 1014.5
01:12 17.6 11.2 66 1014.5
01:22 17.6 11.2 66 1014.7
01:32 17.6 11.2 66 1014.7
01:42 17.6 11.2 66 1014.6
01:52 17.6 11.4 67 1014.6
02:02 17.5 11.3 67 1014.5
02:13 17.5 11.3 67 1014.2
02:23 17.5 11.3 67 1014.3
02:33 17.5 11.3 67 1014.2
02:42 17.5 11.3 67 1014.2
02:53 17.5 11.3 67 1014.1
03:03 17.5 11.3 67 1014.1
03:13 17.4 11.2 67 1014
03:23 17.4 11.2 67 1013.9
03:33 17.4 11.2 67 1013.7
03:43 17.4 11.2 67 1013.6
03:53 17.4 11.2 67 1013.5
04:04 17.3 11.1 67 1013.6
04:14 17.3 11.1 67 1013.2
04:23 17.3 11.1 67 1013.1
04:34 17.3 11.1 67 1013.1
04:44 17.3 11.1 67 1013
04:54 17.2 11 67 1012.9
05:04 17.2 11 67 1012.8
05:14 17.2 11 67 1012.7
05:24 17.1 10.9 67 1012.7
05:34 17.1 10.9 67 1012.7
05:44 17.1 10.9 67 1012.7
05:55 17.1 10.9 67 1012.6
06:04 17 10.8 67 1012.6
06:14 17 10.8 67 1012.5
06:25 17 10.8 67 1012.5
06:35 17 10.8 67 1012.5
06:45 17 10.8 67 1012.7
06:55 17 10.8 67 1012.8
07:05 17 10.8 67 1012.8
07:15 17.1 10.7 66 1012.8
07:25 17.1 10.7 66 1012.8
07:36 17.2 10.8 66 1012.8
07:46 17.2 10.8 66 1012.9
07:55 17.3 10.9 66 1013
08:05 17.4 11 66 1013.1
08:16 17.5 11.1 66 1013.2
08:26 17.6 11 65 1013.2
08:36 17.7 11 65 1013.1
08:46 17.8 11.1 65 1013.1
08:56 17.9 11.2 65 1013.2
09:06 18 11.1 64 1013.4
09:16 18.1 11.2 64 1013.4
09:27 18.2 11.3 64 1013.2
09:37 18.3 11.4 64 1013.4
09:46 18.4 11.5 64 1013.4
09:57 18.5 11.6 64 1013.4
10:07 18.6 11.4 63 1013.4
10:17 18.7 11.5 63 1013.6
10:27 18.7 11.5 63 1013.5
10:37 18.8 11.6 63 1013.6
10:47 18.9 11.7 63 1013.6
10:57 18.9 11.7 63 1013.6
11:07 19 11.8 63 1013.6
11:18 19 11.8 63 1013.6
11:27 19.1 11.9 63 1013.7
11:37 19.2 12 63 1013.7
11:48 19.2 12 63 1013.7
11:58 19.2 12 63 1013.7
12:08 19.3 12.1 63 1013.7
12:18 19.4 12.2 63 1013.7
12:28 19.5 12.3 63 1013.7
12:38 19.5 12.3 63 1013.6
12:48 19.6 12.4 63 1013.6
12:59 19.7 12.5 63 1013.8
13:09 19.7 12.5 63 1013.8
13:18 19.8 12.6 63 1013.7
13:28 19.9 12.7 63 1013.7
13:39 19.9 12.7 63 1013.7
13:49 20 12.7 63 1013.7
13:59 20.1 12.6 62 1013.6
14:09 20.2 12.7 62 1013.6
14:19 20.2 12.7 62 1013.6
14:29 20.3 12.8 62 1013.6
14:39 20.4 12.9 62 1013.5
14:50 20.5 13 62 1013.5
14:59 20.5 13 62 1013.5
15:09 20.6 13.1 62 1013.5
15:20 20.7 13.2 62 1013.5
15:30 20.8 13.3 62 1013.4
15:40 20.9 13.4 62 1013.5
15:50 20.9 13.4 62 1013.5
16:00 21 13.4 62 1013.5
16:10 21.1 13.5 62 1013.5
16:20 21.2 13.6 62 1013.4
16:30 21.4 13.8 62 1013.2
16:41 21.5 13.9 62 1013.1
16:50 21.6 14 62 1013
17:00 21.7 14.1 62 1013.1

DAY STATISTIC

2019-08-18
TEMPERATURE
AVERAGE
18.5
HIGH
21.7
17:00
LOW
17.0
06:04
PRESSURE
AVERAGE
1013.5
HIGH
1014.8
00:21
LOW
1012.5
06:14
DEWPOINT
AVERAGE
11.7
HIGH
14.1
17:00
LOW
10.7
07:15
HUMIDITY
AVERAGE
65
HIGH
67
01:52
LOW
62
13:59
TEMPERATURE (°C)
LOW
17.0
HIGH
21.7
AVERAGE
18.5
PRESSURE (hpa)
LOW
1012.5
HIGH
1014.8
AVERAGE
1013.5
DEVICE